Lapse_Rate
5.0 5.2 5.3 6.0 6.2 6.7 6.7 7.3 6.8 6.8 6.6 6.1 5.9 5.8 5.5 5.3 5.3 5.3 5.7 5.9 6.2 6.6 6.8 6.8 6.8 6.4 6.4 6.4 6.4 6.5 6.6 6.4 6.5 7.3 6.9 7.3 7.1 7.5 7.4 7.8 6.7 6.4 6.3 6.0
5.3 5.4 6.1 6.5 6.7 6.9 7.3 7.5 6.8 6.5 6.4 5.9 5.7 5.5 5.4 5.4 5.4 5.7 5.9 6.0 6.2 6.4 6.6 6.6 6.7 6.5 6.6 6.3 6.6 6.2 6.4 6.6 6.5 7.3 7.6 7.8 7.2 6.7 6.9 6.7 6.6 6.7 6.8 6.2
5.7 6.2 6.8 6.7 6.9 7.2 7.9 7.1 6.9 6.2 6.1 5.8 5.6 5.5 5.6 5.6 5.6 5.9 5.9 6.0 6.1 6.3 6.6 6.6 6.9 6.7 6.8 6.6 6.2 6.4 6.3 6.5 6.2 6.2 6.4 6.1 6.5 6.7 7.2 6.8 6.7 7.5 7.0 6.0
5.9 6.1 7.0 6.6 7.2 8.0 7.7 7.1 7.0 6.4 6.0 5.8 5.7 5.6 5.6 5.6 5.7 5.8 6.0 6.1 6.1 6.0 6.1 6.7 7.3 7.4 7.5 6.8 6.6 6.5 6.2 6.4 6.6 7.0 6.9 6.6 6.3 6.5 6.8 7.7 7.8 8.0 7.2 6.6
6.0 6.6 6.8 6.9 7.9 8.1 7.8 7.3 7.2 6.5 6.0 5.8 5.7 5.5 5.4 5.4 5.6 5.8 6.0 5.9 6.0 5.9 5.8 5.8 6.7 6.9 7.5 7.3 7.6 6.9 6.6 6.4 6.3 7.5 7.0 6.6 6.3 6.4 7.0 7.3 7.2 6.8 7.0 6.3
6.5 6.6 6.8 7.3 8.1 8.0 7.8 7.3 7.0 6.7 6.2 5.8 5.7 5.6 5.5 5.6 5.6 5.7 5.8 5.8 5.5 5.6 5.8 5.9 6.6 7.2 7.6 7.6 7.1 7.1 6.5 6.4 6.0 6.5 7.3 6.9 6.3 6.1 6.3 6.2 6.8 6.8 6.7 6.5
6.4 6.7 7.0 7.7 8.2 7.8 7.5 7.0 6.9 6.7 6.3 5.9 5.6 5.4 5.3 5.6 5.6 5.6 5.8 5.8 5.8 5.8 6.2 6.5 7.0 7.3 7.5 7.6 7.5 7.7 7.2 6.7 6.6 6.6 7.3 7.0 6.3 6.1 6.0 6.5 6.3 5.9 6.5 6.5
6.5 6.7 7.0 7.4 7.5 7.3 7.3 6.9 7.0 6.9 6.4 5.9 5.8 5.6 5.5 5.8 5.8 5.7 5.7 5.8 5.9 6.1 6.4 7.0 7.1 7.3 7.6 7.6 7.5 7.3 7.2 7.0 7.1 7.0 6.7 6.8 6.2 6.3 6.5 5.9 5.9 6.2 6.2 6.3
6.7 6.8 6.7 7.0 7.4 7.1 6.8 7.0 7.1 6.9 6.5 6.2 6.0 5.7 5.8 5.9 5.9 5.8 5.9 5.9 6.0 6.1 6.3 6.5 6.7 6.9 6.9 7.4 7.3 7.4 7.5 7.5 7.3 7.3 7.2 6.6 6.4 7.0 6.7 6.8 5.7 6.1 6.4 6.2
6.8 6.8 6.7 7.1 7.1 7.0 6.8 7.0 7.0 6.9 6.7 6.4 6.1 5.9 5.7 5.9 5.8 5.8 5.9 6.2 6.2 6.3 6.4 6.3 6.4 6.6 6.7 6.9 7.0 7.0 7.3 7.3 7.2 7.2 7.2 6.8 6.6 7.2 6.9 6.5 5.8 5.7 5.9 6.0
7.0 6.8 6.9 7.0 7.1 7.0 6.8 7.0 7.2 7.0 6.7 6.4 6.2 6.0 5.8 5.8 5.9 5.9 6.0 6.2 6.0 6.2 6.3 6.2 6.4 6.4 6.4 6.7 6.7 6.7 6.8 6.9 6.9 6.9 6.9 6.5 6.8 6.9 6.9 5.8 5.9 6.1 6.1 6.1
6.9 6.9 6.9 6.8 7.0 7.0 6.8 7.1 7.1 7.1 6.8 6.3 6.1 6.1 5.8 5.8 6.0 6.1 6.0 6.1 6.1 6.0 6.0 6.0 6.2 6.3 6.4 6.6 6.6 6.8 7.0 7.0 6.7 6.7 6.6 6.5 6.4 6.4 6.1 5.9 5.9 5.8 6.0 6.1
6.8 6.8 6.9 7.0 7.1 6.9 6.7 6.9 7.1 7.0 6.8 6.2 6.1 6.0 6.1 6.1 6.0 6.1 6.2 6.1 5.9 5.9 5.8 5.9 6.1 6.2 6.5 6.5 6.7 6.7 6.6 7.0 7.1 6.8 6.8 6.5 6.3 6.2 6.2 6.3 6.1 6.0 5.9 6.0
6.5 6.5 6.6 6.8 6.9 6.6 6.7 6.9 6.8 6.7 6.5 6.3 6.4 6.3 6.4 6.1 6.1 6.1 6.2 6.2 5.9 6.0 5.9 5.9 6.0 6.2 6.2 6.4 6.6 6.7 6.7 6.9 7.1 6.8 6.8 6.6 6.4 6.1 6.0 5.9 6.0 6.2 6.0 5.9
6.5 6.6 6.4 6.5 6.5 6.4 6.5 6.8 6.4 6.4 6.5 6.5 6.4 6.5 6.4 6.2 6.1 6.2 6.3 6.3 6.1 5.9 6.1 6.0 6.0 6.1 6.3 6.5 6.6 6.8 6.9 7.1 7.1 7.0 7.0 6.7 6.6 6.3 6.2 6.0 5.7 5.9 6.0 6.0
6.4 6.5 6.6 6.5 6.5 6.5 6.4 6.3 6.1 6.4 6.4 6.5 6.5 6.5 6.3 6.4 6.2 6.3 6.4 6.2 6.1 6.1 6.0 6.0 6.1 6.0 6.2 6.4 6.5 7.0 7.1 7.2 7.3 7.1 7.2 7.1 7.0 6.9 6.6 6.3 6.1 6.0 5.8 5.8
6.4 6.2 6.2 6.4 6.5 6.4 6.3 6.4 6.8 6.4 6.5 6.5 6.6 6.6 6.7 6.5 6.3 6.2 6.3 6.3 6.3 6.2 6.2 6.3 6.2 6.2 6.2 6.4 6.6 7.1 7.3 7.4 7.4 7.3 7.2 7.1 6.9 6.8 7.1 6.8 6.3 6.0 6.0 5.9
6.1 5.9 6.0 6.3 6.4 6.4 6.5 6.3 6.4 6.3 6.2 6.1 6.3 6.4 6.5 6.6 6.4 6.4 6.5 6.5 6.6 6.7 6.6 6.6 6.4 6.3 6.3 6.4 7.0 7.4 7.6 7.6 7.5 7.3 7.2 7.0 6.8 6.7 6.7 6.7 6.6 6.6 6.5 6.3
6.0 6.0 6.2 6.4 6.6 6.6 6.4 6.1 5.7 5.8 5.8 6.0 6.4 6.6 6.5 6.8 6.8 6.7 6.8 6.9 7.0 6.9 7.0 6.8 6.6 6.5 6.5 7.0 7.4 7.6 7.6 7.5 7.4 7.4 7.3 7.0 6.8 6.6 6.4 6.3 6.4 6.6 6.6 6.4
6.2 6.3 6.5 6.8 6.8 6.4 5.9 5.6 5.7 5.7 5.9 6.2 6.8 6.8 6.9 7.0 7.0 7.0 7.1 7.1 6.8 7.1 7.2 7.1 6.9 6.8 7.2 7.4 7.5 7.4 7.5 7.4 7.2 7.1 7.3 7.2 7.2 6.8 6.5 6.4 6.3 6.6 6.7 6.6
6.1 6.1 6.3 6.8 6.6 6.2 6.0 5.9 5.9 6.0 6.1 6.8 7.3 7.1 7.1 7.0 7.1 7.0 7.2 7.4 7.3 7.2 7.4 7.3 7.4 7.6 7.6 7.4 7.4 7.3 7.1 7.0 7.0 7.0 7.1 7.1 7.1 7.1 6.9 6.6 6.4 6.3 6.3 6.4
6.3 6.3 6.5 6.4 6.3 6.3 6.2 5.9 6.1 6.2 6.7 7.3 7.7 7.6 7.5 7.3 7.2 7.2 7.2 7.3 7.4 7.1 7.4 7.5 7.7 8.1 7.9 7.6 7.4 7.2 7.1 7.2 7.1 7.0 6.9 6.8 6.8 6.8 6.8 6.7 6.6 6.4 6.3 6.3
6.2 6.3 6.5 6.3 6.3 6.3 6.1 6.0 6.1 6.7 7.9 7.8 7.8 7.8 7.7 7.5 7.3 7.2 7.6 7.6 7.6 7.3 7.3 7.5 7.9 7.9 7.8 7.3 7.2 7.2 7.1 6.9 6.8 6.7 6.6 6.5 6.5 6.5 6.5 6.5 6.6 6.6 6.5 6.3
6.3 6.3 6.2 6.6 6.6 6.5 6.8 6.9 7.3 8.0 8.3 8.1 7.8 7.6 7.5 7.4 7.4 7.4 7.6 7.6 7.4 7.3 7.3 7.8 8.0 7.8 7.5 7.3 7.4 7.3 7.1 6.9 6.8 6.7 6.6 6.5 6.3 6.2 6.1 6.1 6.1 6.0 6.0 5.9
6.4 6.4 6.6 6.6 6.8 7.0 7.1 7.5 7.4 7.8 7.8 7.8 7.8 7.5 7.4 7.6 7.7 7.6 7.6 7.1 6.9 7.2 7.8 7.8 7.7 7.5 7.5 7.4 7.2 7.0 6.9 6.7 6.6 6.5 6.5 6.4 6.3 6.1 5.9 5.8 5.6 5.5 5.5 5.4
6.5 6.7 7.0 7.4 7.3 7.2 7.3 7.9 7.7 7.7 7.9 7.5 7.4 7.5 7.6 7.6 7.7 7.6 7.6 7.1 7.6 7.9 8.0 7.8 7.7 7.6 7.4 7.2 7.0 6.8 6.8 6.7 6.7 6.6 6.5 6.4 6.2 6.0 5.9 5.8 5.7 5.5 5.2 5.0
6.5 7.0 7.2 7.4 7.4 7.6 7.5 7.6 7.7 7.8 7.8 7.8 7.7 7.7 8.2 7.7 7.6 7.4 7.6 7.9 8.0 7.7 7.7 7.7 7.5 7.3 7.1 7.0 7.0 7.0 6.9 6.8 6.7 6.7 6.5 6.4 6.3 6.0 6.0 6.0 5.8 5.6 5.5 5.4
Wind_Speed
12 11 7 4 4 4 4 3 2 1 3 2 1 2 4 4 3 3 2 3 3 2 4 5 3 5 3 9 7 8 4 4 6 11 9 11 5 11 7 2 3 2 2 2
12 11 7 7 4 4 3 3 2 2 4 2 1 4 2 6 3 1 1 2 2 2 3 5 4 5 8 13 12 4 6 3 6 8 3 10 5 9 14 4 2 5 1 2
11 9 6 6 3 2 2 3 2 2 2 1 3 0 2 3 2 0 3 1 2 3 4 1 7 4 6 9 12 10 5 3 2 5 10 6 7 16 16 8 3 3 1 4
11 8 5 4 4 2 2 2 3 3 2 2 4 2 1 2 3 4 6 4 3 2 4 6 2 7 9 10 5 6 2 4 5 15 9 5 5 12 12 9 10 3 9 4
10 8 4 3 4 2 2 3 3 3 0 3 3 1 1 2 3 2 4 1 5 4 4 4 13 11 11 6 7 6 5 4 6 6 4 6 11 11 15 11 13 13 16 9
11 8 5 4 5 3 2 1 2 3 2 2 3 3 3 2 2 1 1 4 4 6 7 8 13 12 15 12 10 13 4 3 5 4 13 7 8 15 17 12 22 7 5 6
12 8 6 4 5 4 2 1 2 3 1 2 0 2 3 4 3 1 3 5 2 5 8 10 8 9 13 11 12 11 4 4 2 4 8 3 5 16 8 19 18 18 14 10
12 8 7 5 5 3 3 1 3 2 2 1 5 9 4 7 7 5 2 3 4 7 6 4 5 5 5 4 2 3 6 2 3 2 3 3 8 14 9 6 10 13 11 7
13 9 7 7 4 4 3 2 1 3 4 1 4 3 4 3 3 6 3 5 5 6 3 3 3 3 4 4 7 6 7 1 2 3 2 5 4 19 15 6 7 11 11 10
13 10 8 7 5 6 4 1 2 3 3 1 3 3 1 1 2 2 3 6 7 5 3 2 2 2 4 4 5 5 5 4 3 3 2 2 12 18 13 3 4 7 7 7
13 11 10 8 7 7 3 1 4 3 2 3 2 2 1 2 2 2 4 4 4 4 5 3 2 2 3 2 2 4 4 3 4 4 4 4 19 7 6 3 9 10 7 5
14 13 12 9 8 7 4 2 3 3 3 3 2 6 8 7 6 4 2 3 2 1 3 2 2 2 3 3 2 2 3 2 2 4 2 4 5 5 7 7 6 9 10 11
15 14 12 10 8 7 6 2 2 3 2 3 3 3 2 7 9 5 4 2 1 2 3 2 2 1 2 1 2 3 3 4 3 4 4 5 6 5 8 8 9 8 7 10
15 14 13 10 9 8 6 2 1 3 2 1 5 4 4 2 7 7 6 3 3 3 2 1 1 1 0 2 3 2 2 4 1 3 5 5 5 5 6 5 7 9 9 9
15 13 13 11 9 7 6 3 3 2 3 1 4 8 5 5 8 8 5 4 3 2 2 1 2 2 2 2 1 2 3 2 1 2 1 2 2 3 4 4 6 7 9 10
14 12 14 11 9 7 3 3 1 5 1 1 3 4 4 1 6 6 5 4 3 2 2 2 3 3 2 0 0 2 4 3 4 2 3 4 4 3 4 1 4 7 9 9
14 12 13 11 8 3 2 3 1 2 2 1 3 4 3 3 4 3 3 2 2 2 1 1 2 2 2 1 2 6 6 5 4 4 3 3 5 3 7 7 6 10 10 9
15 14 11 9 7 4 2 2 3 4 2 1 1 3 2 1 2 1 1 1 2 1 2 2 2 2 1 1 5 8 7 6 4 5 5 5 5 6 8 9 8 10 9 8
17 15 12 4 3 1 3 7 12 5 1 2 2 2 3 1 2 1 1 2 0 1 2 3 3 2 2 4 6 9 6 3 0 6 7 6 6 5 7 9 9 9 7 7
19 5 3 2 3 5 8 2 1 1 2 2 2 1 2 3 0 1 2 1 2 1 4 2 3 2 4 6 8 8 9 10 6 7 6 6 6 8 8 9 8 7 6 7
2 2 2 3 2 3 2 2 2 2 3 4 4 5 3 1 3 3 2 2 1 2 3 4 2 3 3 6 9 8 10 11 11 11 9 8 8 7 7 7 7 7 8 8
5 4 2 2 2 2 3 3 3 4 5 3 4 4 4 1 3 3 2 2 1 3 0 2 2 1 9 9 10 9 8 10 10 9 9 8 9 7 7 7 7 7 7 6
3 3 2 3 3 4 5 7 4 3 3 3 2 1 4 1 3 2 2 3 4 1 2 2 1 7 8 8 9 10 8 9 9 10 10 10 9 7 7 5 3 4 6 5
3 4 3 3 4 4 4 4 4 5 3 5 4 2 3 2 2 3 3 4 1 2 2 4 3 8 9 7 7 8 7 7 7 6 6 6 6 4 4 4 3 4 5 4
3 3 4 4 2 3 2 4 2 3 2 5 3 3 3 1 3 2 2 1 3 4 4 3 5 9 9 8 8 8 7 5 5 3 4 4 4 5 3 2 3 4 4 4
2 3 2 3 2 3 1 1 1 1 2 2 3 3 3 3 3 3 5 3 5 3 3 4 8 7 6 8 7 6 6 6 5 4 3 3 4 4 3 2 3 3 3 4
2 3 1 2 3 4 1 1 1 2 2 2 2 5 5 2 3 3 3 4 3 4 6 5 7 9 8 7 7 6 6 6 5 3 3 3 3 3 2 2 2 2 1 1
Wind_Direction
156 164 156 133 64 315 111 114 99 201 107 67 117 127 196 177 249 320 47 352 280 323 294 274 328 305 271 353 352 332 276 293 290 293 264 256 273 354 30 78 358 245 210 272
153 153 150 92 55 50 138 108 130 24 95 129 296 270 244 193 207 40 11 315 360 317 325 317 298 325 319 358 330 336 326 315 312 337 271 51 26 328 325 298 44 287 345 346
154 150 133 87 68 83 89 98 97 353 51 210 173 158 356 27 138 101 24 253 11 338 315 278 290 309 319 329 323 325 353 283 310 295 276 278 292 311 312 173 210 233 115 31
154 152 126 85 39 39 104 48 220 190 211 302 148 135 353 25 347 39 31 356 43 21 299 295 276 302 319 315 285 346 43 269 287 295 292 331 298 290 318 44 355 171 106 95
151 149 153 77 30 76 93 120 112 22 162 166 137 162 124 94 103 75 309 337 309 315 270 250 302 317 315 267 300 356 348 278 313 307 317 38 11 43 45 29 6 86 99 70
157 156 145 69 26 85 89 316 355 101 322 59 98 219 172 77 61 322 331 269 286 291 270 255 273 261 267 246 270 295 276 310 330 285 327 90 24 2 49 49 23 331 77 87
164 159 142 84 40 77 114 58 97 84 279 83 304 61 92 82 53 210 307 17 21 269 288 295 284 260 252 254 255 210 261 330 289 291 325 55 10 16 25 55 33 17 51 61
165 152 143 99 57 89 83 38 85 101 91 6 7 32 60 43 12 4 106 323 254 294 308 352 339 350 8 344 36 46 205 271 308 348 325 119 39 358 347 360 44 24 31 41
160 149 147 113 78 81 90 61 112 92 116 54 307 68 38 88 351 341 326 306 318 17 55 43 5 12 343 341 351 355 19 32 125 337 23 35 0 330 325 266 53 28 20 32
161 154 150 118 98 93 93 41 66 80 98 252 17 93 156 98 59 254 307 326 346 33 21 15 18 348 332 6 14 333 340 353 39 345 28 101 351 327 311 72 360 30 34 34
159 162 152 127 118 120 83 62 49 107 127 280 330 348 126 2 106 150 280 29 354 4 37 24 319 9 324 36 103 348 17 342 3 356 32 343 0 11 51 343 24 19 29 57
159 158 150 136 129 107 85 91 49 71 103 241 269 247 237 194 197 140 339 190 228 184 60 10 331 345 348 358 344 28 30 358 106 21 53 48 33 30 34 23 44 24 23 8
155 156 152 148 122 103 83 102 90 67 43 313 352 282 10 188 217 182 155 302 231 61 163 181 256 292 105 17 289 344 15 32 82 177 75 81 39 29 27 25 25 43 31 22
153 157 154 152 130 102 92 97 106 81 80 5 282 313 315 204 155 177 189 158 48 113 102 123 139 251 257 251 268 101 319 14 350 117 129 125 75 46 13 22 30 34 64 47
147 154 151 141 139 122 91 91 219 152 114 297 289 307 263 238 164 190 175 152 136 98 35 80 233 257 22 305 116 63 19 11 24 262 259 261 120 63 47 29 40 47 47 55
146 150 149 143 139 123 76 26 320 206 177 63 310 294 296 75 137 157 158 158 114 112 132 234 275 261 116 26 79 105 111 67 20 28 81 77 82 41 355 45 46 56 67 54
140 141 146 145 141 92 123 173 104 90 138 198 293 313 278 152 90 41 44 61 112 115 190 234 224 280 108 150 199 143 122 106 70 33 93 69 39 38 24 10 100 86 77 61
137 132 128 128 117 52 355 223 168 134 110 239 267 266 343 92 85 66 1 111 135 155 220 293 214 306 158 82 121 133 133 134 119 91 72 85 84 54 39 30 77 75 61 48
134 127 113 72 54 83 237 195 146 105 90 189 205 207 234 327 79 107 58 60 108 240 208 244 113 339 64 8 93 89 73 87 148 132 112 98 89 74 57 60 58 63 53 46
124 80 63 358 233 218 99 34 117 152 177 215 252 316 262 109 83 206 95 154 217 221 234 117 88 97 89 72 67 72 62 45 81 98 72 54 103 87 74 66 62 60 51 48
71 101 176 237 233 68 87 157 222 152 201 217 216 205 193 236 119 195 185 183 234 265 262 149 152 151 116 108 89 79 79 77 74 86 77 65 78 99 90 74 64 61 59 57
174 145 95 33 94 117 170 204 184 209 220 211 174 209 188 205 109 106 167 207 195 258 243 233 175 99 127 115 106 94 86 86 79 75 78 73 75 75 84 78 65 54 56 46
64 80 174 163 220 177 207 192 195 200 212 193 156 137 138 89 81 83 115 213 234 43 30 233 184 134 125 121 111 99 94 95 94 88 87 86 80 68 81 81 45 57 55 22
97 149 231 217 200 227 196 205 190 232 142 140 125 95 127 167 81 159 106 223 235 266 241 227 147 140 134 123 118 116 103 99 101 100 94 88 87 77 63 70 79 63 52 24
140 178 229 229 258 270 248 229 284 296 192 122 73 51 92 29 123 206 195 223 230 219 230 195 148 140 131 126 124 125 126 125 120 120 112 118 110 104 84 56 89 89 69 48
123 224 287 299 297 337 280 351 190 298 187 73 69 117 139 172 175 165 202 204 221 227 162 139 131 128 128 134 133 133 135 134 131 125 133 130 128 137 161 87 67 68 103 85
209 272 200 191 262 283 302 350 8 337 72 149 152 155 192 143 172 217 186 218 210 152 133 129 136 142 141 133 132 135 136 137 141 136 136 162 182 143 128 116 260 188 149 120